TimeEDT,TemperatureF,Dew PointF,Humidity,Sea Level PressureIn,VisibilityMPH,Wind Direction,Wind SpeedMPH,Gust SpeedMPH,PrecipitationIn,Events,Conditions,WindDirDegrees,DateUTC
12:53 AM,75.9,62.1,62,30.04,10.0,ENE,11.5,-,N/A,,Clear,60,2012-10-23 04:53:00
3:53 AM,75.0,66.9,76,29.99,10.0,ENE,12.7,-,0.00,,Mostly Cloudy,60,2012-10-23 07:53:00
4:53 AM,75.9,64.9,69,29.99,10.0,ENE,16.1,23.0,N/A,,Overcast,60,2012-10-23 08:53:00
5:53 AM,75.9,64.9,69,29.99,10.0,ENE,13.8,-,N/A,,Partly Cloudy,70,2012-10-23 09:53:00
6:53 AM,75.9,66.0,71,30.00,10.0,ENE,10.4,-,N/A,,Mostly Cloudy,60,2012-10-23 10:53:00
7:53 AM,77.0,66.9,71,30.00,10.0,ENE,11.5,-,N/A,,Mostly Cloudy,60,2012-10-23 11:53:00
8:53 AM,78.1,66.9,68,30.02,10.0,ENE,15.0,21.9,0.00,,Mostly Cloudy,60,2012-10-23 12:53:00
9:53 AM,75.9,69.1,79,30.03,10.0,ENE,12.7,20.7,0.00,Rain,Light Rain,70,2012-10-23 13:53:00
10:38 AM,73.4,69.8,88,30.04,2.0,SE,11.5,-,0.08,Rain,Light Rain,130,2012-10-23 14:38:00
11:53 AM,79.0,68.0,69,30.02,10.0,ENE,15.0,25.3,0.00,,Overcast,60,2012-10-23 15:53:00
1:53 PM,80.1,66.9,64,29.99,10.0,ENE,13.8,20.7,N/A,,Mostly Cloudy,60,2012-10-23 17:53:00
2:53 PM,81.0,66.9,62,29.98,10.0,ENE,15.0,26.5,N/A,,Overcast,60,2012-10-23 18:53:00
3:53 PM,80.1,64.9,60,29.97,10.0,ENE,13.8,21.9,N/A,,Overcast,70,2012-10-23 19:53:00
4:53 PM,80.1,66.9,64,29.98,10.0,ENE,13.8,20.7,N/A,,Mostly Cloudy,70,2012-10-23 20:53:00
5:53 PM,79.0,66.0,64,29.99,10.0,ENE,11.5,20.7,N/A,,Scattered Clouds,60,2012-10-23 21:53:00
6:53 PM,77.0,64.9,66,29.99,10.0,ENE,8.1,-,N/A,,Clear,60,2012-10-23 22:53:00
7:53 PM,77.0,66.0,69,30.00,10.0,ENE,10.4,-,N/A,,Partly Cloudy,60,2012-10-23 23:53:00
8:53 PM,77.0,64.9,66,30.01,10.0,ENE,13.8,-,N/A,,Clear,60,2012-10-24 00:53:00
9:53 PM,77.0,66.9,71,30.01,10.0,ENE,11.5,-,N/A,,Partly Cloudy,60,2012-10-24 01:53:00
10:53 PM,77.0,69.1,76,30.03,4.0,East,20.7,26.5,0.00,Rain,Light Rain,90,2012-10-24 02:53:00
11:00 PM,73.4,69.8,88,30.02,2.0,NE,11.5,26.5,0.13,Rain,Heavy Rain,40,2012-10-24 03:00:00
11:09 PM,73.4,69.8,88,30.02,8.0,NE,5.8,-,0.13,Rain,Light Rain,40,2012-10-24 03:09:00
11:53 PM,75.0,71.1,87,30.01,5.0,East,12.7,-,0.14,Rain,Light Rain,90,2012-10-24 03:53:00